Regional Weather Roundup
Issued by NWS Charleston, WV

Home | Current Version | Previous Version | Graphics & Text | Print | Product List | Glossary On
Versions: 1 2 3 4 5 6 7 8 9 10 11 12 13 14 15 16 17 18 19 20 21 22 23 24 25 26 27 28 29 30 31 32 33 34 35 36 37 38 39 40 41 42 43 44 45 46 47 48 49 50
000
ASUS41 KRLX 200810
RWRRLX
West Virginia Regional Weather Roundup
National Weather Service Charleston WV
Issued by National Weather Service Pittsburgh PA
300 AM EST MON NOV 20 2017

Note: "fair" indicates few or no clouds below 12,000 feet with no
significant weather and/or obstructions to visibility.

WVZ003-200900-
Northern Panhandle of West Virginia

CITY           SKY/WX    TMP DP  RH WIND       PRES   REMARKS
WHEELING       CLOUDY    29  20  69 W14G20    30.10R WCI  18
$$

WVZ009-200900-
Northwest West Virginia

CITY           SKY/WX    TMP DP  RH WIND       PRES   REMARKS
PARKERSBURG    MOCLDY    30  20  66 W6        30.21R WCI  24
$$

WVZ006-200900-
Western West Virginia

CITY           SKY/WX    TMP DP  RH WIND       PRES   REMARKS
HUNTINGTON     CLEAR     29  23  78 SW5       30.21R WCI  24
$$

WVZ015-200900-
West Central West Virginia

CITY           SKY/WX    TMP DP  RH WIND       PRES   REMARKS
CHARLESTON     CLEAR     32  24  72 SW7       30.19R WCI  26
$$

WVZ031-200900-
North Central West Virginia

CITY           SKY/WX    TMP DP  RH WIND       PRES   REMARKS
CLARKSBURG     CLOUDY    32  20  61 W9        30.14R WCI  24
MORGANTOWN     CLOUDY    32  20  61 SW7       30.12R WCI  26
$$

WVZ035-042-200900-
South Central West Virginia

CITY           SKY/WX    TMP DP  RH WIND       PRES   REMARKS
BECKLEY        CLOUDY    28  20  71 NW10      30.11R WCI  19
BLUEFIELD      MOCLDY    26  19  74 W8G17     30.10R WCI  18
$$

WVZ045-200900-
Greenbrier Valley of West Virginia

CITY           SKY/WX    TMP DP  RH WIND       PRES   REMARKS
LEWISBURG      PTCLDY    30  21  69 CALM      30.10R
$$

WVZ047-200900-
Northern Mountains of West Virginia

CITY           SKY/WX    TMP DP  RH WIND       PRES   REMARKS
ELKINS         CLOUDY    30  21  69 W10G16    30.10R WCI  21
$$

WVZ052-200900-
Eastern Panhandle of West Virginia

CITY           SKY/WX    TMP DP  RH WIND       PRES   REMARKS
MARTINSBURG    CLOUDY    38  22  52 NW8       30.05R
PETERSBURG     PTCLDY    35  22  58 W16G25    30.07R WCI  25
$$




USA.gov is the U.S. government's official web portal to all federal, state and local government web resources and services.